User: anonymous   Login
Location: Clyde
(45.1830°S, 169.3170°E)
Time: 14:05:27
(UTC+13:00)
Language:

Resurs 01 Rocket - Orbit

View from above orbital plane
View from above orbital plane
View from above satellite
View from above satellite

Ground track
Ground track

The orbit data is extracted from the following two-line orbital elements,

1 23343U 94074B   19321.89590295 +.00000020 +00000-0 +10243-4 0  9998
2 23343 098.0325 011.3829 0008180 111.4399 300.7660 14.76798999347042
Epoch (UTC): 17 November 2019 21:30:06
Eccentricity: 0.0008180
inclination: 98.0325°
perigee height: 634 km
apogee height: 645 km
right ascension of ascending node: 11.3829°
argument of perigee: 111.4399°
revolutions per day: 14.76798999
mean anomaly at epoch: 300.7660°
orbit number at epoch: 34704

The dashed part of the orbit path shows where the satellite is in the earth's shadow,  

DLR